Regional Weather Roundup
Issued by NWS

Home | Current Version | Previous Version | Graphics & Text | Print | Product List | Glossary Off
Versions: 1 2 3 4 5 6 7 8 9 10 11 12 13 14 15 16 17 18 19 20 21 22 23 24 25 26 27 28 29 30 31 32 33 34 35 36 37 38 39 40 41 42 43 44 45 46 47 48 49 50

000
ASUS43 KDMX 160506
RWRIA

WEATHER ROUNDUP FOR IOWA
NATIONAL WEATHER SERVICE DES MOINES IA
1200 AM CDT MON OCT 16 2017

NOTE: "FAIR" INDICATES FEW OR NO CLOUDS BELOW 12,000 FEET WITH NO
SIGNIFICANT WEATHER AND/OR OBSTRUCTIONS TO VISIBILITY.

* - THESE STATIONS ARE NOT NWS STATIONS...THUS NOT UNDER NWS
QUALITY CONTROL.  THEY ALSO DO NOT REPORT WEATHER SUCH
AS PRECIPITATION OR FOG.

IAZ001>003-012>014-020>022-031>034-043>046-160600-
   NORTHWEST IOWA

CITY           SKY/WX    TMP DP  RH WIND       PRES   REMARKS
CARROLL *      CLEAR     45  39  81 W9        30.30S
CHEROKEE *     PTCLDY    37  35  92 CALM      30.29S
DENISON *      CLEAR     39  36  87 CALM      30.32F
LE MARS *      CLEAR     39  34  81 CALM      30.30S
ORANGE CITY *  CLEAR     43  37  81 W3        30.29S
SHELDON *      CLEAR     36  34  93 W6        30.26S WCI  31
SIOUX CITY     CLEAR     40  35  83 CALM      30.31S
SPENCER        CLEAR     35  32  88 W5        30.27S WCI  31
STORM LAKE *   CLEAR     43  34  70 W8        30.29S
$$

IAZ055>058-069>071-079>083-090>094-160600-
   SOUTHWEST IOWA

CITY           SKY/WX    TMP DP  RH WIND       PRES   REMARKS
ATLANTIC *     CLEAR     39  37  93 S5        30.33R
AUDUBON *      CLEAR     39  36  87 CALM      30.32S
CLARINDA *     CLEAR     39  39 100 CALM      30.36S
COUNCIL BLFS * CLEAR     48  37  66 W6        30.33S
CRESTON *      CLEAR     43  34  70 SW6       30.33F
HARLAN  *      CLEAR     39  37  93 CALM      30.36R
LAMONI         CLEAR     44  35  70 SW5       30.32F
RED OAK *      CLEAR     37  36  93 CALM      30.34S
SHENANDOAH *   CLEAR     39  37  93 CALM      30.35R
$$

IAZ047>049-059>061-072>074-084-160600-
   CENTRAL IOWA

CITY           SKY/WX    TMP DP  RH WIND       PRES   REMARKS
AMES           CLEAR     41  37  86 SW9       30.29R
ANKENY *       CLEAR     37  37 100 CALM      30.31S
BOONE *        CLEAR     41  36  81 W7        30.28F
CHARITON *     CLEAR     45  36  70 SW6       30.31F
DES MOINES     CLEAR     45  36  70 SW6       30.30F
GRINNELL*      PTCLDY    41  34  75 SW6       30.30F
KNOXVILLE *    CLEAR     43  36  75 SW7       30.29F
MARSHALLTOWN   CLEAR     41  35  79 SW6       30.27F
NEWTON *       CLEAR     41  34  75 SW7       30.30S
PELLA *        CLEAR     45  36  70 SW5       30.31F
PERRY *          N/A     40  37  92 W5        30.31R
$$

IAZ004>006-015-016-023>025-035-036-160600-
   NORTH CENTRAL IOWA

CITY           SKY/WX    TMP DP  RH WIND       PRES   REMARKS
ALGONA *       CLEAR     39  36  87 W6        30.26S WCI  35
CLARION *      CLEAR     37  36  93 CALM      30.27S
ESTHERVILLE    CLEAR     36  35  96 W5        30.25F WCI  32
FORT DODGE *   CLEAR     41  35  79 CALM      30.28S
MASON CITY     CLEAR     41  34  76 W9        30.27S
FOREST CITY *    N/A     36  34  93 CALM      30.26S
WEBSTER CITY * CLEAR     41  36  81 W8        30.26S
IOWA FALLS *     N/A     42  36  79 SW7       30.28S
$$

IAZ007>011-017>019-026>030-037>042-050>054-066-160600-
   NORTHEAST IOWA

CITY           SKY/WX    TMP DP  RH WIND       PRES   REMARKS
CEDAR RAPIDS   CLEAR     38  37  97 S5        30.27F WCI  34
CHARLES CITY * MOCLDY    43  36  75 W6        30.25S
CLINTON *      CLEAR     38  37  97 W7        30.30S WCI  33
DECORAH *      MOCLDY    43  37  81 S3        30.23S
DUBUQUE        CLOUDY    40  38  93 S5        30.27F
MONTICELLO *   PTCLDY    37  36  93 SE3       30.27F
OELWEIN *      CLEAR     41  37  87 SW7       30.26S
WATERLOO       CLEAR     39  33  79 SW5       30.25F
$$

IAZ064-065-067-068-078-160600-
   EAST CENTRAL IOWA

CITY           SKY/WX    TMP DP  RH WIND       PRES   REMARKS
DAVENPORT      CLEAR     40  37  89 SW5       30.31S
IOWA CITY      CLEAR     39  37  92 CALM      30.30F
MUSCATINE *    FOG       39  39 100 CALM      30.31F VSB 1
QUAD CITIES    CLEAR     42  38  85 CALM      30.30S
$$

IAZ062-063-075>077-085>089-095>099-160600-
   SOUTHEAST IOWA

CITY           SKY/WX    TMP DP  RH WIND       PRES   REMARKS
BURLINGTON     CLEAR     41  40  96 SW3       30.31S
FAIRFIELD *    CLEAR     41  36  81 SW3       30.30F
FORT MADISON * CLEAR     41  39  93 CALM      30.33S
KEOKUK *       CLEAR     41  39  93 CALM      30.32S
OSKALOOSA *      N/A     40  35  80 SW5       30.31S
OTTUMWA        CLEAR     41  36  82 SW3       30.31S
WASHINGTON *   CLEAR     37  37 100 SW5       30.31F WCI  34
$$

ABBREVIATIONS USED IN REMARKS
   TC - TEMPERATURES IN CELSIUS
  WCI - WIND CHILL INDEX
   HX - HEAT INDEX
  VSB - VISIBILITY
$$





USA.gov is the U.S. government's official web portal to all federal, state and local government web resources and services.